EHI
0 0 0 0 0 0 0 0 0 0 0 0 0 0 0 0 0 0 0 0 0 0 0 0 0 0 1 2 3 4 3 3 2 1 0 0 0 0 0 0 0 0 0 0
0 0 0 0 0 0 0 0 0 0 0 0 0 0 0 0 0 0 0 0 0 0 0 0 0 0 0 2 3 4 3 3 2 1 0 0 0 0 0 0 0 0 0 0
0 0 0 0 0 0 0 0 0 0 0 0 0 0 0 0 0 0 0 0 0 0 0 0 0 0 0 1 3 3 3 3 2 2 1 1 1 1 0 0 0 0 0 0
0 0 0 0 0 0 0 0 0 0 0 0 0 0 0 0 0 0 0 0 0 0 0 0 0 0 0 1 3 3 3 2 2 3 3 3 3 1 0 0 0 0 0 0
0 0 0 0 0 0 0 0 0 0 0 0 0 0 0 0 0 0 0 0 0 0 0 0 0 0 1 2 3 3 2 2 2 3 4 5 4 2 1 0 0 0 0 0
0 0 0 0 0 0 0 0 0 0 0 0 0 0 0 0 0 0 0 0 0 0 0 0 1 2 3 4 3 2 2 2 2 2 3 4 4 3 1 0 0 0 0 0
0 0 0 0 0 0 0 0 0 0 0 0 0 0 0 0 0 0 0 0 0 0 0 1 2 3 4 5 4 2 1 1 1 1 1 3 3 3 1 1 0 0 0 0
0 0 0 0 0 0 0 0 0 0 0 0 0 0 0 0 0 0 0 0 0 0 0 1 2 3 4 5 5 3 1 0 0 0 1 2 3 3 3 2 1 0 0 0
0 0 0 0 0 0 0 0 0 0 0 0 0 0 0 0 0 0 0 0 0 0 0 0 1 1 2 3 3 3 2 1 0 0 1 2 3 3 3 2 1 0 0 0
0 0 0 0 0 0 0 0 0 0 0 0 0 0 0 0 0 0 0 0 0 0 0 0 0 0 0 1 1 2 2 1 0 0 1 2 2 3 3 2 1 0 0 0
0 0 0 0 0 0 0 0 0 0 0 0 0 0 0 0 0 0 0 0 0 0 0 0 0 0 0 0 1 1 1 1 0 0 0 1 1 1 2 2 1 0 0 0
0 0 0 0 0 0 0 0 0 0 0 0 0 0 0 0 0 0 0 0 0 0 0 0 0 0 0 0 0 1 1 2 1 0 0 0 0 1 2 1 0 0 0 0
0 0 0 0 0 0 0 0 0 0 0 0 0 0 0 0 0 0 0 0 0 0 0 0 0 0 0 0 1 1 2 2 1 1 1 1 1 1 1 0 0 0 0 0
0 0 0 0 0 0 0 0 0 0 0 0 0 0 0 0 0 0 0 0 0 0 0 0 0 0 1 1 1 1 1 1 1 1 1 2 2 1 0 0 0 0 0 0
0 0 0 0 0 0 0 0 0 0 0 0 0 0 0 0 0 0 0 0 0 0 0 0 0 0 1 2 2 2 2 1 0 0 1 2 2 1 0 0 0 0 0 0
0 0 0 0 0 0 0 0 0 0 0 0 0 0 0 0 0 0 0 0 0 0 0 0 0 0 0 1 2 3 2 1 0 0 0 1 1 1 0 0 0 0 0 0
0 0 0 0 0 0 0 0 0 0 0 0 0 0 0 0 0 0 0 0 0 0 0 0 0 0 0 0 1 1 2 1 0 0 0 0 0 0 0 0 0 0 0 0
0 0 0 0 0 0 0 0 0 0 0 0 0 0 0 0 0 0 0 0 0 0 0 0 0 0 0 0 0 0 1 1 0 0 0 0 0 0 0 0 0 0 0 0
0 0 0 0 0 0 0 0 0 0 0 0 0 0 0 0 0 0 0 0 0 0 0 0 0 0 0 0 0 0 0 0 0 0 0 0 0 0 0 0 0 0 1 1
0 0 0 0 0 0 0 0 0 0 0 0 0 0 0 0 0 0 0 0 0 0 0 0 0 0 0 0 0 0 0 0 0 0 0 0 0 0 0 0 0 1 2 2
0 0 0 0 0 0 0 0 0 0 0 0 0 0 0 0 0 0 0 0 0 0 0 0 0 0 0 0 0 0 0 0 0 0 0 0 0 0 0 0 0 1 2 3
0 0 0 0 0 0 0 0 0 0 0 0 0 0 0 0 0 0 0 0 0 0 0 0 0 0 0 0 0 0 0 0 0 0 0 0 0 0 0 0 0 1 2 3
0 0 0 0 0 0 0 0 0 0 0 0 0 0 0 0 0 0 0 0 0 0 0 0 0 0 0 0 0 0 0 0 0 0 0 0 0 0 0 0 0 0 1 2
0 0 0 0 0 0 0 0 0 0 0 0 0 0 0 0 0 0 0 0 0 0 0 0 0 0 0 0 0 0 0 0 0 0 0 0 0 0 0 0 0 0 0 1
0 0 0 0 0 0 0 0 0 0 0 0 0 0 0 0 0 0 0 0 0 0 0 0 0 0 0 0 0 0 0 0 0 0 0 1 1 1 1 0 0 0 0 0
0 0 0 0 0 0 0 0 0 0 0 0 0 0 0 0 0 0 0 0 0 0 0 0 0 0 0 0 0 0 0 0 0 0 1 2 2 2 2 1 0 0 0 0
Wind_Speed
5 6 6 6 6 5 4 5 5 4 2 5 7 7 6 6 7 7 7 7 7 6 6 6 6 6 6 6 6 6 5 5 4 3 2 2 2 2 1 1 1 1 1 1
6 7 5 4 5 5 6 7 6 3 1 4 6 8 6 6 8 7 7 7 7 7 6 7 7 7 7 7 6 6 6 5 4 3 2 2 2 1 1 1 1 1 1 0
7 3 3 5 6 7 7 8 6 5 3 5 6 7 5 4 6 6 7 7 8 7 8 8 8 8 7 7 6 5 6 6 5 4 3 2 2 2 2 1 1 1 1 0
7 4 6 7 7 7 7 5 6 6 7 4 4 6 3 3 4 6 6 7 7 7 7 7 8 8 8 7 6 6 6 5 5 5 4 4 3 3 2 1 1 2 2 1
5 5 7 8 6 7 4 2 5 6 7 8 6 7 3 1 4 4 5 6 7 7 8 8 8 8 8 7 6 5 6 5 5 5 5 4 3 2 2 2 2 2 1 1
5 4 5 4 3 5 4 4 4 6 6 8 5 6 4 1 3 2 3 4 6 7 7 7 7 7 7 6 6 5 5 5 5 4 5 5 4 3 3 3 2 2 1 1
7 7 5 4 4 5 7 6 5 5 5 3 1 4 4 3 3 3 3 2 4 6 7 7 7 7 7 7 7 6 6 6 6 5 5 5 5 5 4 3 3 2 2 2
7 6 6 5 6 6 7 8 6 4 4 2 3 5 2 3 2 2 2 1 2 4 6 6 7 7 7 7 7 7 7 6 6 6 5 5 5 4 3 3 3 3 2 2
5 4 3 3 4 7 6 6 5 7 6 6 4 3 3 0 1 1 1 1 2 3 5 5 5 6 6 6 7 7 7 6 6 6 5 5 5 4 4 4 3 2 3 2
5 6 3 3 5 3 6 4 5 6 5 6 5 5 3 1 1 0 1 1 2 3 4 4 5 5 5 5 5 6 6 6 6 6 5 4 4 4 4 4 4 3 3 3
7 8 5 5 6 6 6 7 7 5 5 5 4 1 2 2 3 2 1 1 2 3 3 4 4 4 5 5 5 5 5 5 5 5 5 5 4 4 4 4 4 4 4 4
5 6 7 7 3 3 6 7 8 7 6 6 6 3 2 1 2 3 2 1 1 2 3 4 4 4 4 5 4 5 5 5 5 5 5 5 5 4 5 4 5 5 4 4
3 6 7 6 6 6 6 6 8 8 7 7 8 4 3 1 2 2 2 1 1 3 3 4 4 4 4 4 4 4 4 5 4 5 5 5 5 5 5 5 5 5 5 4
4 7 8 8 5 3 6 7 8 9 8 9 10 9 5 5 4 3 3 1 1 2 3 4 4 4 4 4 4 4 4 4 4 5 5 5 5 5 5 5 5 5 5 5
4 7 8 8 7 6 8 8 8 11 11 11 10 9 8 7 6 5 3 1 1 2 2 3 4 4 4 4 4 4 4 4 4 4 5 5 5 5 5 5 5 5 5 5
4 6 6 8 6 7 9 9 9 10 10 11 11 10 7 5 4 4 2 2 2 2 2 2 3 4 4 4 4 4 3 4 4 5 5 4 5 5 5 5 5 5 5 6
4 5 6 7 6 8 11 9 10 9 9 9 10 8 4 4 4 4 3 3 3 3 2 2 3 3 3 4 3 3 3 3 4 4 4 4 4 5 5 5 5 5 6 6
6 5 5 6 6 10 2 1 4 7 7 7 7 4 3 3 3 2 2 2 3 2 2 2 2 2 3 3 3 3 3 3 3 3 3 3 4 4 4 5 5 5 5 5
7 6 5 5 7 8 4 2 3 5 5 4 5 4 3 2 2 2 1 2 2 2 2 2 2 2 2 2 3 3 3 3 3 3 3 3 4 4 4 5 5 5 5 5
6 7 6 6 7 6 1 2 2 5 5 1 2 2 2 3 5 1 2 2 2 2 1 1 1 1 1 2 2 3 3 3 3 3 3 3 3 3 3 4 4 4 4 5
7 7 9 9 8 5 1 1 3 6 1 2 1 1 1 3 3 2 2 1 2 1 1 1 0 0 0 1 2 2 2 2 2 2 2 2 2 2 2 3 3 3 3 4
6 6 7 7 8 5 2 3 4 2 3 1 1 1 1 2 2 2 1 1 1 1 1 1 0 0 0 1 2 2 2 1 1 2 2 2 2 1 1 1 2 2 3 3
6 4 3 5 3 2 1 2 2 1 1 2 2 2 1 2 2 2 1 1 0 0 0 1 1 0 0 1 2 2 1 1 2 2 2 2 2 1 1 1 1 2 2 2
4 3 5 6 5 4 3 2 2 1 2 2 2 1 2 2 2 2 1 1 1 0 1 1 0 0 0 0 1 2 1 2 2 2 2 1 1 1 1 1 1 1 2 2
3 4 5 7 5 4 3 3 2 1 1 1 1 1 2 2 2 2 2 1 1 1 1 0 0 1 0 1 0 1 1 2 2 2 1 1 1 1 1 1 1 2 2 2
6 7 6 6 4 5 4 2 2 2 2 1 1 2 2 2 2 2 2 2 1 1 0 0 1 1 1 1 1 0 0 1 1 1 1 1 1 1 1 1 0 2 1 3
Wind_Direction
189 213 222 219 231 262 253 256 269 285 270 260 265 269 263 239 230 227 224 218 213 209 198 188 189 188 186 183 185 180 183 175 172 170 170 168 158 150 133 123 100 99 76 60
200 224 239 232 218 229 234 248 264 272 214 263 278 279 269 235 231 234 233 227 219 206 191 181 186 183 188 187 191 188 190 180 176 178 178 174 162 172 135 145 141 131 93 71
223 230 202 204 207 226 242 254 266 282 279 245 275 265 235 220 225 228 233 232 223 209 198 182 183 185 186 190 190 190 191 180 175 173 175 165 159 182 174 176 184 208 223 181
234 220 208 217 226 239 249 252 256 258 267 267 260 290 267 224 223 222 223 222 219 209 203 188 185 188 190 193 192 192 184 178 175 176 183 186 189 191 195 181 185 203 214 218
223 211 220 231 238 237 258 236 239 253 267 274 247 265 283 209 244 229 219 217 215 207 202 195 190 190 190 186 188 192 182 177 176 184 178 196 197 193 186 185 188 197 195 218
239 221 236 243 241 228 205 203 209 228 248 260 256 256 291 241 278 285 223 213 207 202 197 196 189 187 183 176 180 185 184 179 179 186 187 197 195 199 197 195 198 201 190 213
220 206 200 217 211 191 219 240 240 229 225 248 140 253 274 342 344 324 297 233 199 191 190 190 184 180 178 178 182 185 186 186 188 195 195 202 204 209 211 210 212 218 214 219
227 218 200 215 237 234 222 242 261 279 281 291 205 248 277 22 355 331 312 235 174 177 181 181 182 183 181 182 185 189 191 194 194 201 202 205 209 217 217 223 228 226 237 241
244 232 171 223 242 244 222 230 267 279 280 276 253 245 261 73 119 83 100 122 154 170 174 174 177 184 183 185 188 195 195 198 198 202 207 210 212 219 222 227 230 232 239 245
261 257 211 187 203 215 260 232 223 244 267 267 260 256 272 286 9 41 157 149 162 169 170 173 175 184 183 186 190 193 197 201 200 203 207 207 216 219 229 228 230 234 240 241
247 249 224 204 220 222 205 215 228 239 254 273 277 268 46 353 349 315 262 200 172 172 173 174 176 181 180 179 186 192 198 203 205 205 208 208 212 223 225 233 238 245 250 245
234 255 249 237 223 269 237 235 231 241 241 246 272 276 103 282 322 316 302 227 176 176 173 171 172 173 179 185 190 197 200 201 202 206 209 213 213 219 226 232 238 240 246 248
215 243 250 224 195 199 225 233 238 248 256 247 251 254 123 219 291 301 291 280 210 180 176 170 172 177 183 191 197 203 204 204 201 206 210 215 215 220 226 233 241 240 240 239
250 242 250 262 286 259 236 233 232 234 245 251 249 262 264 272 281 288 289 282 199 183 185 185 187 187 187 192 198 204 209 206 203 207 215 219 222 224 230 235 240 242 241 240
246 251 250 264 273 266 262 254 236 237 250 260 265 269 280 287 286 285 283 257 201 195 201 204 207 204 198 197 199 203 205 205 202 206 216 223 228 232 234 238 241 245 246 246
243 253 255 254 251 251 257 255 245 242 249 252 262 271 287 292 285 272 249 226 227 228 228 227 225 216 213 210 206 201 203 206 206 208 214 219 231 233 237 240 243 246 247 247
221 244 258 260 250 257 248 245 237 234 236 245 256 265 270 276 279 272 255 239 245 249 249 242 237 227 222 218 214 208 203 200 207 213 218 219 230 238 242 242 242 245 245 244
232 235 253 264 251 245 254 129 239 240 242 244 255 268 272 289 300 300 288 269 261 265 263 265 261 241 224 215 208 206 200 197 203 213 219 220 230 238 242 242 244 249 251 245
229 226 240 252 256 262 240 192 220 230 252 248 249 255 266 265 255 223 335 309 294 291 287 281 271 247 214 205 198 198 198 198 202 213 223 227 233 240 243 245 247 250 251 251
199 222 233 240 255 255 225 125 264 244 238 141 260 272 259 242 254 259 32 357 345 343 340 331 249 217 201 192 191 197 198 201 208 220 231 234 238 244 248 251 255 254 253 256
188 203 223 236 247 260 11 137 210 232 19 70 306 293 244 258 311 7 6 356 2 7 14 19 99 179 228 185 188 199 199 212 225 228 231 235 241 245 253 261 256 256 256 257
218 211 215 224 232 239 119 176 218 339 31 17 339 335 300 311 331 326 319 340 25 30 23 2 37 52 285 202 198 206 212 231 220 212 218 228 236 241 246 255 266 262 260 257
231 241 238 234 251 24 148 232 328 355 335 335 331 337 329 317 311 305 301 294 306 351 13 340 329 48 142 222 233 227 218 227 213 197 198 211 211 213 228 238 257 271 269 267
221 246 247 245 248 258 254 248 261 288 317 320 315 307 288 299 301 295 292 297 302 322 1 346 288 224 73 245 243 256 228 216 207 192 193 207 214 214 217 239 250 264 273 275
240 214 240 251 260 262 227 236 243 260 313 329 326 292 282 286 290 300 293 290 303 328 7 2 331 346 340 339 305 276 247 219 206 188 187 205 206 226 236 228 298 282 288 307
219 223 237 254 257 258 258 234 240 236 249 272 294 302 304 294 293 306 314 315 313 308 340 22 15 358 351 352 355 8 281 216 199 183 175 198 210 228 255 259 280 53 346 352